When you browse on this site, cookies collect data to enhance your experience and personalize the content and advertising you see.
Visit our Privacy Policy to learn more. By continuing to use the site, you agree to this use of cookies and data.

Hourly Weather Veszprem

Today, 13 August, Thursday

Time Temperature Precipitation Wind Pressure Humidity
00:00 +22°C° 0 mm 1 mps 741 mmHg 56%
01:00 +22°C° 0 mm 1 mps 741 mmHg 57%
02:00 +21°C° 0 mm 1 mps 741 mmHg 60%
03:00 +21°C° 0 mm 1 mps 741 mmHg 62%
04:00 +20°C° 0 mm 1 mps 740 mmHg 65%
05:00 +21°C° 0 mm 1 mps 741 mmHg 64%
06:00 +21°C° 0 mm 2 mps 741 mmHg 62%
07:00 +23°C° 0 mm 2 mps 741 mmHg 61%
08:00 +25°C° 0 mm 2 mps 741 mmHg 56%
09:00 +27°C° 0 mm 3 mps 741 mmHg 51%
10:00 +28°C° 0 mm 3 mps 741 mmHg 46%
11:00 +29°C° 0 mm 3 mps 740 mmHg 43%
12:00 +30°C° 0 mm 4 mps 740 mmHg 41%
13:00 +32°C° 0 mm 4 mps 740 mmHg 38%
14:00 +32°C° 0 mm 4 mps 739 mmHg 38%
15:00 +32°C° 0 mm 4 mps 739 mmHg 38%
16:00 +32°C° 0 mm 4 mps 738 mmHg 37%
17:00 +29°C° 0 mm 3 mps 738 mmHg 42%
18:00 +28°C° 0 mm 3 mps 738 mmHg 47%
19:00 +26°C° 0 mm 2 mps 738 mmHg 52%
20:00 +25°C° 0.2 mm 2 mps 738 mmHg 53%
21:00 +25°C° 0.2 mm 1 mps 738 mmHg 55%
22:00 +24°C° 0.2 mm 1 mps 738 mmHg 57%
23:00 +24°C° 0.1 mm 1 mps 738 mmHg 59%

Tomorrow, 14 August, Friday

Time Temperature Precipitation Wind Pressure Humidity
00:00 +23°C° 0.1 mm 1 mps 738 mmHg 61%
01:00 +23°C° 0.1 mm 1 mps 738 mmHg 63%
02:00 +23°C° 0.2 mm 1 mps 738 mmHg 64%
03:00 +22°C° 0.2 mm 1 mps 738 mmHg 66%
04:00 +22°C° 0.2 mm 1 mps 738 mmHg 67%
05:00 +22°C° 0.4 mm 1 mps 738 mmHg 70%
06:00 +22°C° 0.4 mm 1 mps 738 mmHg 72%
07:00 +22°C° 0.4 mm 1 mps 738 mmHg 75%
08:00 +22°C° 0.5 mm 1 mps 738 mmHg 75%
09:00 +22°C° 0.5 mm 1 mps 738 mmHg 76%
10:00 +22°C° 0.5 mm 1 mps 738 mmHg 76%
11:00 +23°C° 0.3 mm 1 mps 738 mmHg 71%
12:00 +24°C° 0.3 mm 1 mps 738 mmHg 67%
13:00 +25°C° 0.3 mm 1 mps 738 mmHg 63%
14:00 +26°C° 0 mm 1 mps 737 mmHg 59%
15:00 +27°C° 0 mm 1 mps 737 mmHg 55%
16:00 +28°C° 0 mm 1 mps 737 mmHg 52%
17:00 +27°C° 0 mm 1 mps 737 mmHg 57%
18:00 +25°C° 0 mm 1 mps 736 mmHg 63%
19:00 +24°C° 0 mm 2 mps 736 mmHg 69%
20:00 +23°C° 0.1 mm 2 mps 737 mmHg 69%
21:00 +23°C° 0.1 mm 2 mps 737 mmHg 70%
22:00 +21°C° 0.1 mm 2 mps 737 mmHg 70%
23:00 +21°C° 0.2 mm 2 mps 737 mmHg 72%

Day after tomorrow, 15 August, Saturday

Time Temperature Precipitation Wind Pressure Humidity
00:00 +20°C° 0.2 mm 2 mps 737 mmHg 75%
01:00 +20°C° 0.2 mm 2 mps 737 mmHg 77%
02:00 +20°C° 0 mm 2 mps 737 mmHg 77%
03:00 +20°C° 0 mm 2 mps 737 mmHg 77%
04:00 +20°C° 0 mm 2 mps 737 mmHg 76%
05:00 +20°C° 0.2 mm 3 mps 737 mmHg 77%
06:00 +21°C° 0.2 mm 4 mps 737 mmHg 78%
07:00 +21°C° 0.2 mm 4 mps 737 mmHg 79%
08:00 +22°C° 0.1 mm 4 mps 738 mmHg 77%
09:00 +23°C° 0.1 mm 4 mps 738 mmHg 74%
10:00 +25°C° 0.1 mm 3 mps 738 mmHg 71%
11:00 +26°C° 0.1 mm 3 mps 738 mmHg 67%
12:00 +27°C° 0.1 mm 3 mps 737 mmHg 63%
13:00 +27°C° 0.1 mm 3 mps 737 mmHg 59%
14:00 +27°C° 0.1 mm 3 mps 737 mmHg 60%
15:00 +27°C° 0.1 mm 2 mps 736 mmHg 62%
16:00 +27°C° 0.1 mm 2 mps 736 mmHg 63%
17:00 +26°C° 0.8 mm 2 mps 736 mmHg 70%
18:00 +24°C° 0.8 mm 2 mps 736 mmHg 76%
19:00 +23°C° 0.8 mm 2 mps 736 mmHg 83%
20:00 +21°C° 0.1 mm 2 mps 736 mmHg 85%
21:00 +21°C° 0.1 mm 2 mps 736 mmHg 88%
22:00 +20°C° 0.1 mm 2 mps 736 mmHg 90%
23:00 +21°C° 0 mm 1 mps 736 mmHg 91%

16 August, Sunday

Time Temperature Precipitation Wind Pressure Humidity
00:00 +20°C° 0 mm 1 mps 737 mmHg 92%
01:00 +20°C° 0 mm 1 mps 737 mmHg 93%
02:00 +20°C° 0 mm 1 mps 736 mmHg 93%
03:00 +20°C° 0 mm 1 mps 736 mmHg 94%
04:00 +19°C° 0 mm 1 mps 736 mmHg 94%
05:00 +20°C° 0 mm 1 mps 736 mmHg 91%
06:00 +21°C° 0 mm 1 mps 737 mmHg 87%
07:00 +22°C° 0 mm 1 mps 737 mmHg 84%
08:00 +24°C° 0 mm 1 mps 737 mmHg 77%
09:00 +26°C° 0 mm 1 mps 738 mmHg 69%
10:00 +27°C° 0 mm 2 mps 738 mmHg 62%
11:00 +28°C° 0.5 mm 2 mps 737 mmHg 59%
12:00 +29°C° 0.5 mm 2 mps 737 mmHg 57%
13:00 +29°C° 0.5 mm 2 mps 737 mmHg 54%
14:00 +29°C° 0.2 mm 2 mps 737 mmHg 53%
15:00 +30°C° 0.2 mm 2 mps 736 mmHg 52%
16:00 +30°C° 0.2 mm 2 mps 736 mmHg 51%
17:00 +28°C° 0 mm 1 mps 736 mmHg 55%
18:00 +26°C° 0 mm 1 mps 736 mmHg 60%
19:00 +23°C° 0 mm 0 mps 736 mmHg 64%
20:00 +24°C° 0 mm 1 mps 736 mmHg 66%
21:00 +24°C° 0 mm 1 mps 736 mmHg 67%
22:00 +23°C° 0 mm 1 mps 737 mmHg 69%
23:00 +23°C° 0 mm 1 mps 736 mmHg 70%

17 August, Monday

Time Temperature Precipitation Wind Pressure Humidity
00:00 +23°C° 0 mm 1 mps 736 mmHg 72%
01:00 +22°C° 0 mm 1 mps 736 mmHg 73%
02:00 +22°C° 0 mm 1 mps 736 mmHg 74%
03:00 +22°C° 0 mm 1 mps 736 mmHg 76%
04:00 +21°C° 0 mm 1 mps 736 mmHg 77%
05:00 +22°C° 0 mm 1 mps 736 mmHg 75%
06:00 +23°C° 0 mm 1 mps 736 mmHg 72%
07:00 +24°C° 0 mm 1 mps 737 mmHg 69%
08:00 +26°C° 0 mm 2 mps 737 mmHg 63%
09:00 +28°C° 0 mm 3 mps 737 mmHg 58%
10:00 +30°C° 0 mm 3 mps 737 mmHg 52%
11:00 +31°C° 0 mm 3 mps 736 mmHg 48%
12:00 +33°C° 0 mm 4 mps 736 mmHg 45%
13:00 +34°C° 0 mm 4 mps 735 mmHg 41%
14:00 +34°C° 0 mm 3 mps 735 mmHg 41%
15:00 +33°C° 0 mm 3 mps 735 mmHg 42%
16:00 +33°C° 0 mm 3 mps 734 mmHg 42%
17:00 +31°C° 0.1 mm 2 mps 734 mmHg 47%
18:00 +29°C° 0.1 mm 2 mps 734 mmHg 53%
19:00 +27°C° 0.1 mm 1 mps 734 mmHg 58%
20:00 +26°C° 0.5 mm 1 mps 734 mmHg 63%
21:00 +25°C° 0.5 mm 1 mps 734 mmHg 68%
22:00 +24°C° 0.5 mm 1 mps 734 mmHg 72%
23:00 +23°C° 0.3 mm 1 mps 733 mmHg 74%

18 August, Tuesday

Time Temperature Precipitation Wind Pressure Humidity
00:00 +23°C° 0.3 mm 1 mps 733 mmHg 75%
01:00 +23°C° 0.3 mm 1 mps 733 mmHg 76%
02:00 +22°C° 0.1 mm 1 mps 733 mmHg 80%
03:00 +20°C° 0.1 mm 2 mps 733 mmHg 83%
04:00 +20°C° 0.1 mm 2 mps 733 mmHg 86%
05:00 +20°C° 0.1 mm 3 mps 733 mmHg 87%
06:00 +20°C° 0.1 mm 4 mps 733 mmHg 88%
07:00 +20°C° 0.1 mm 6 mps 733 mmHg 89%
08:00 +21°C° 0.2 mm 6 mps 734 mmHg 87%
09:00 +21°C° 0.2 mm 6 mps 734 mmHg 85%
10:00 +22°C° 0.2 mm 6 mps 734 mmHg 82%
11:00 +22°C° 0 mm 6 mps 734 mmHg 79%
12:00 +23°C° 0 mm 6 mps 734 mmHg 76%
13:00 +23°C° 0 mm 6 mps 733 mmHg 73%
14:00 +23°C° 0 mm 6 mps 733 mmHg 71%
15:00 +23°C° 0 mm 6 mps 733 mmHg 69%
16:00 +23°C° 0 mm 6 mps 733 mmHg 67%
17:00 +22°C° 0 mm 6 mps 734 mmHg 69%
18:00 +21°C° 0 mm 5 mps 734 mmHg 71%
19:00 +20°C° 0 mm 5 mps 734 mmHg 73%
20:00 +19°C° 0.1 mm 5 mps 734 mmHg 74%
21:00 +19°C° 0.1 mm 6 mps 734 mmHg 74%
22:00 +19°C° 0.1 mm 6 mps 734 mmHg 75%
23:00 +17°C° 0.1 mm 6 mps 734 mmHg 78%
Show more